星链-35222(STARLINK-35222)

导读

STARLINK-35222是美国星链计划的卫星,于2025年9月21日发射升空。星链项目是太空探索技术公司打造的低轨卫星互联网星座,计划部署数万颗卫星。该卫星入轨后将参与组网,进一步扩展星链全球网络覆盖,为全球多地提供高速低延迟互联网服务,推动太空互联网基础设施建设。

Basic Information
目录编号:
65677
目录名称:
STARLINK-35222
国际标识:
2025-212B
轨道中心:
EARTH
卫星名称:
星链-35222
卫星全名:
星链-35222(STARLINK-35222)
卫星状态:
在轨 (已飞行348 天)
发射日期:
2025-09-21 UTC
国别 :
美国 (US)
星等 :
--
Orbit Information
数据来源 国际轨道数据
星历时间: 2026-09-03T14:12:03+0800
1天前
查看轨道信息
半长轴: 6840.845km
偏心率: 0.0001259
轨道倾角: 53.158°
近地点辐角 115.770°
升交点赤经 238.513°
平近点角 244.343°
近地点: 461.846km
远地点: 463.57km
周期: 93.848分钟
每日圈数: 15.343985
Detailed Information
固有亮度:
5
最大亮度:
2.5
卫星平台:
Starlink V1.0
覆盖范围:
全球
运营商:
太空探索技术公司
运营商所在国:
美国
制造商(研发单位):
太空探索技术公司
制造商所在国:
美国
使用方式:
暂无
Satellite Introduction
Starlink 计划是 SpaceX 推出的全球卫星互联网项目,通过发射低轨道卫星,为全球尤其是偏远地区提供高速、低延迟的互联网服务。自 2019 年起,Starlink 已部署数千颗卫星,旨在缩小全球数字鸿沟,推动互联网普及。该项目还为军事、航空等行业提供通信支持,带来广泛经济效益。
2D Orbit Map
3D Orbit Map
Orbit Altitude Analysis Chart
Orbit Inclination Analysis Chart
Orbit Comprehensive Analysis Chart
View Comprehensive Chart
Conjunction Data List
Event ID Objects TCA Miss Dist (km) Collision Risk Probability Collision Risk Index (CRI) Action
CDM_260905-162705-405506-567721
2026-09-05T
16:27:23+0000
2.703 km
极远距离
5.407584E-7 极低风险 0.3